• In Latvia
  • List of Countries
  • For 7 days
  • Water Temperature
  • Satellite Maps
  • Weather Map
  • Weather Widgets
  • user-avatar
    Login

    Hourly Weather Kitzbuhel

    Today, 23 November, Thursday

    Time Temperature Precipitation Wind Pressure Humidity
    00:00 +2°C° 0 mm 2 mps 674 mmHg 77%
    01:00 +2°C° 0 mm 2 mps 674 mmHg 77%
    02:00 +2°C° 0 mm 2 mps 674 mmHg 78%
    03:00 +2°C° 0 mm 2 mps 674 mmHg 78%
    04:00 +1°C° 0 mm 2 mps 674 mmHg 79%
    05:00 +1°C° 0 mm 2 mps 674 mmHg 79%
    06:00 +1°C° 0 mm 2 mps 674 mmHg 79%
    07:00 +1°C° 0 mm 2 mps 674 mmHg 79%
    08:00 +2°C° 0 mm 2 mps 674 mmHg 79%
    09:00 +4°C° 0 mm 2 mps 674 mmHg 79%
    10:00 +6°C° 0 mm 2 mps 675 mmHg 78%
    11:00 +7°C° 0 mm 2 mps 675 mmHg 80%
    12:00 +9°C° 0 mm 1 mps 675 mmHg 82%
    13:00 +10°C° 0 mm 1 mps 675 mmHg 84%
    14:00 +9°C° 0 mm 1 mps 675 mmHg 82%
    15:00 +8°C° 0 mm 1 mps 675 mmHg 80%
    16:00 +7°C° 0 mm 1 mps 675 mmHg 78%
    17:00 +6°C° 0 mm 1 mps 675 mmHg 76%
    18:00 +4°C° 0 mm 2 mps 676 mmHg 73%
    19:00 +3°C° 0 mm 2 mps 676 mmHg 71%
    20:00 +3°C° 0 mm 2 mps 676 mmHg 70%
    21:00 +3°C° 0 mm 2 mps 677 mmHg 70%
    22:00 +3°C° 0 mm 2 mps 677 mmHg 69%
    23:00 +3°C° 0 mm 2 mps 677 mmHg 70%

    Tomorrow, 24 November, Friday

    Time Temperature Precipitation Wind Pressure Humidity
    00:00 +3°C° 0 mm 2 mps 677 mmHg 70%
    01:00 +3°C° 0 mm 2 mps 677 mmHg 71%
    02:00 +3°C° 0 mm 2 mps 677 mmHg 72%
    03:00 +3°C° 0 mm 2 mps 677 mmHg 73%
    04:00 +2°C° 0 mm 2 mps 677 mmHg 75%
    05:00 +2°C° 0 mm 2 mps 677 mmHg 75%
    06:00 +2°C° 0 mm 2 mps 677 mmHg 76%
    07:00 +2°C° 0 mm 2 mps 676 mmHg 77%
    08:00 +3°C° 0 mm 2 mps 676 mmHg 76%
    09:00 +5°C° 0 mm 2 mps 676 mmHg 75%
    10:00 +6°C° 0 mm 2 mps 677 mmHg 74%
    11:00 +7°C° 0 mm 2 mps 676 mmHg 74%
    12:00 +8°C° 0 mm 2 mps 676 mmHg 75%
    13:00 +9°C° 0 mm 2 mps 676 mmHg 75%
    14:00 +8°C° 0 mm 2 mps 676 mmHg 77%
    15:00 +7°C° 0 mm 2 mps 676 mmHg 80%
    16:00 +6°C° 0 mm 2 mps 675 mmHg 82%
    17:00 +5°C° 0 mm 2 mps 676 mmHg 81%
    18:00 +4°C° 0 mm 2 mps 676 mmHg 80%
    19:00 +3°C° 0 mm 2 mps 676 mmHg 79%
    20:00 +3°C° 0 mm 2 mps 676 mmHg 78%
    21:00 +4°C° 0 mm 1 mps 676 mmHg 78%
    22:00 +4°C° 0 mm 1 mps 676 mmHg 77%
    23:00 +4°C° 0 mm 1 mps 676 mmHg 77%

    Day after tomorrow, 25 November, Saturday

    Time Temperature Precipitation Wind Pressure Humidity
    00:00 +4°C° 0 mm 1 mps 675 mmHg 78%
    01:00 +4°C° 0 mm 1 mps 675 mmHg 78%
    02:00 +3°C° 0 mm 2 mps 675 mmHg 80%
    03:00 +3°C° 0 mm 2 mps 674 mmHg 82%
    04:00 +3°C° 0 mm 2 mps 673 mmHg 84%
    05:00 +2°C° 0 mm 2 mps 673 mmHg 86%
    06:00 +2°C° 0 mm 2 mps 672 mmHg 87%
    07:00 +2°C° 0 mm 2 mps 672 mmHg 88%
    08:00 +2°C° 0 mm 3 mps 671 mmHg 86%
    09:00 +3°C° 0 mm 3 mps 671 mmHg 84%
    10:00 +5°C° 0 mm 3 mps 670 mmHg 82%
    11:00 +5°C° 0 mm 3 mps 670 mmHg 83%
    12:00 +7°C° 0 mm 3 mps 670 mmHg 84%
    13:00 +7°C° 0 mm 3 mps 669 mmHg 84%
    14:00 +7°C° 0.3 mm 2 mps 669 mmHg 87%
    15:00 +6°C° 0.3 mm 2 mps 669 mmHg 90%
    16:00 +5°C° 0.3 mm 2 mps 669 mmHg 93%
    17:00 +4°C° 1.6 mm 3 mps 670 mmHg 92%
    18:00 +3°C° 1.6 mm 3 mps 670 mmHg 91%
    19:00 +1°C° 1.6 mm 4 mps 670 mmHg 90%
    20:00 +1°C° 1 mm 3 mps 671 mmHg 91%
    21:00 0°C° 1 mm 3 mps 671 mmHg 91%
    22:00 -1°C° 1 mm 2 mps 672 mmHg 92%
    23:00 -1°C° 0.6 mm 3 mps 672 mmHg 91%

    26 November, Sunday

    Time Temperature Precipitation Wind Pressure Humidity
    00:00 -1°C° 0.6 mm 3 mps 673 mmHg 91%
    01:00 -2°C° 0.6 mm 3 mps 673 mmHg 90%
    02:00 -2°C° 0.4 mm 3 mps 674 mmHg 90%
    03:00 -4°C° 0.4 mm 3 mps 674 mmHg 90%
    04:00 -4°C° 0.4 mm 4 mps 675 mmHg 91%
    05:00 -5°C° 0.2 mm 3 mps 675 mmHg 91%
    06:00 -5°C° 0.2 mm 3 mps 676 mmHg 91%
    07:00 -6°C° 0.2 mm 3 mps 676 mmHg 91%
    08:00 -6°C° 0.1 mm 3 mps 677 mmHg 86%
    09:00 -6°C° 0.1 mm 3 mps 677 mmHg 82%
    10:00 -5°C° 0.1 mm 3 mps 678 mmHg 78%
    11:00 -5°C° 0.1 mm 3 mps 678 mmHg 77%
    12:00 -5°C° 0.1 mm 3 mps 678 mmHg 76%
    13:00 -4°C° 0.1 mm 3 mps 678 mmHg 75%
    14:00 -4°C° 0.1 mm 2 mps 679 mmHg 78%
    15:00 -4°C° 0.1 mm 2 mps 679 mmHg 81%
    16:00 -5°C° 0.1 mm 2 mps 679 mmHg 83%
    17:00 -5°C° 0.1 mm 2 mps 679 mmHg 84%
    18:00 -6°C° 0.1 mm 2 mps 679 mmHg 86%
    19:00 -7°C° 0.1 mm 2 mps 679 mmHg 87%
    20:00 -7°C° 0 mm 2 mps 680 mmHg 85%
    21:00 -7°C° 0 mm 2 mps 680 mmHg 84%
    22:00 -7°C° 0 mm 2 mps 680 mmHg 83%
    23:00 -7°C° 0.1 mm 2 mps 680 mmHg 82%

    27 November, Monday

    Time Temperature Precipitation Wind Pressure Humidity
    00:00 -7°C° 0.1 mm 2 mps 680 mmHg 82%
    01:00 -7°C° 0.1 mm 2 mps 680 mmHg 82%
    02:00 -7°C° 0.1 mm 2 mps 680 mmHg 83%
    03:00 -7°C° 0.1 mm 2 mps 680 mmHg 84%
    04:00 -6°C° 0.1 mm 2 mps 680 mmHg 85%
    05:00 -7°C° 0.1 mm 2 mps 680 mmHg 85%
    06:00 -7°C° 0.1 mm 2 mps 680 mmHg 85%
    07:00 -7°C° 0.1 mm 2 mps 680 mmHg 85%
    08:00 -6°C° 0.1 mm 2 mps 680 mmHg 83%
    09:00 -4°C° 0.1 mm 2 mps 680 mmHg 80%
    10:00 -1°C° 0.1 mm 1 mps 680 mmHg 78%
    11:00 -1°C° 0.1 mm 1 mps 680 mmHg 77%
    12:00 0°C° 0.1 mm 1 mps 679 mmHg 76%
    13:00 +1°C° 0.1 mm 1 mps 679 mmHg 75%
    14:00 0°C° 0 mm 1 mps 679 mmHg 78%
    15:00 -1°C° 0 mm 1 mps 678 mmHg 81%
    16:00 -2°C° 0 mm 1 mps 678 mmHg 85%
    17:00 -3°C° 0 mm 1 mps 678 mmHg 86%
    18:00 -3°C° 0 mm 1 mps 678 mmHg 86%
    19:00 -4°C° 0 mm 1 mps 677 mmHg 87%
    20:00 -6°C° 0 mm 1 mps 677 mmHg 85%
    21:00 -6°C° 0 mm 1 mps 677 mmHg 82%
    22:00 -6°C° 0 mm 1 mps 677 mmHg 79%
    23:00 -7°C° 0 mm 2 mps 676 mmHg 78%

    28 November, Tuesday

    Time Temperature Precipitation Wind Pressure Humidity
    00:00 -7°C° 0 mm 2 mps 676 mmHg 76%
    01:00 -6°C° 0 mm 2 mps 675 mmHg 74%
    02:00 -6°C° 0 mm 2 mps 675 mmHg 73%
    03:00 -6°C° 0 mm 2 mps 675 mmHg 72%
    04:00 -6°C° 0 mm 2 mps 675 mmHg 71%
    05:00 -6°C° 0 mm 2 mps 674 mmHg 70%
    06:00 -5°C° 0 mm 2 mps 674 mmHg 69%
    07:00 -5°C° 0 mm 2 mps 674 mmHg 67%
    08:00 -2°C° 0 mm 1 mps 674 mmHg 66%
    09:00 -1°C° 0 mm 1 mps 674 mmHg 66%
    10:00 +1°C° 0 mm 1 mps 674 mmHg 65%
    11:00 +2°C° 0 mm 1 mps 673 mmHg 64%
    12:00 +3°C° 0 mm 1 mps 673 mmHg 63%
    13:00 +3°C° 0 mm 1 mps 672 mmHg 62%
    14:00 +2°C° 0 mm 1 mps 672 mmHg 68%
    15:00 +1°C° 0 mm 1 mps 671 mmHg 73%
    16:00 0°C° 0 mm 1 mps 671 mmHg 79%
    17:00 -1°C° 0 mm 1 mps 671 mmHg 79%
    18:00 -2°C° 0 mm 1 mps 671 mmHg 80%
    19:00 -5°C° 0 mm 2 mps 671 mmHg 81%
    20:00 -5°C° 0 mm 2 mps 671 mmHg 81%
    21:00 -5°C° 0 mm 2 mps 671 mmHg 81%
    22:00 -5°C° 0 mm 2 mps 670 mmHg 80%
    23:00 -5°C° 0 mm 2 mps 670 mmHg 80%
    Show more